#timestamp,LO_Frequency,Hit,StdDev 
1665626415.6,286047002.7,N
1665626435.4,286047000.1,N
1665626455.2,286047000.6,N
1665626475.1,286047002.4,N
1665626476.0,286047002.4,N
1665626495.8,286047002.4,N
1665626515.6,286047000.4,N
1665626535.5,286047000.3,N
1665626555.3,286047000.1,N
1665626575.2,286047002.4,N
1665626595.9,286047000.0,N
1665626615.7,286047000.1,N
1665626635.6,286047000.4,N
1665626655.4,286047002.5,N
1665626675.2,286046999.8,N
1665626695.1,286047002.6,N
1665626696.0,286047002.6,N
1665626715.8,286047002.2,N
1665626735.7,286047001.3,N
1665626755.5,286047001.4,N
1665626775.3,286047004.0,N
1665626795.2,286047000.9,N
1665626815.9,286046998.7,N
1665626835.7,286047000.5,N
1665626855.6,286046999.8,N
1665626875.4,286047000.1,N
1665626895.3,286047002.6,N
1665626915.1,286046999.8,N
1665626916.0,286046999.8,N
1665626935.8,286047002.7,N
1665626955.7,286046999.7,N
1665626975.5,286046999.8,N
1665626995.3,286047002.0,N
1665627015.2,286047000.2,N
1665627035.0,286047002.3,N
1665627035.9,286047002.3,N
1665627055.8,286046998.2,N
1665627075.6,286047000.5,N
1665627095.4,286046998.4,N
1665627115.3,286047000.7,N
1665627135.1,286047002.5,N
1665627155.8,286047002.6,N
1665627175.7,286047000.9,N
1665627195.5,286046996.6,N
1665627215.4,286046999.6,N
1665627235.2,286046999.9,N
1665627255.0,286046999.9,N
1665627255.9,286046999.9,N
1665627275.8,286046999.9,N
1665627295.6,286047000.4,N
1665627315.4,286047000.2,N
1665627335.3,286047002.1,N
1665627355.1,286047002.0,N
1665627375.9,286047001.3,N
1665627395.7,286047002.2,N
1665627415.5,286047002.0,N
1665627435.4,286047001.3,N
1665627455.2,286047004.0,N
1665627475.0,286047005.4,Y
1665627475.9,286047005.4,P
1665627495.8,286047002.6,N
1665627515.6,286047001.4,N
1665627535.5,286047002.1,N
1665627555.3,286047002.3,N
1665627575.1,286047000.3,N
1665627595.9,286047001.9,N
1665627615.7,286047001.5,N
1665627635.5,286047002.1,N
1665627655.4,286047003.7,N
1665627675.2,286047002.3,N
1665627695.1,286047002.0,N
1665627696.0,286047002.0,N
1665627715.8,286047001.7,N
1665627735.6,286047000.3,N
1665627755.5,286047001.2,N
1665627775.3,286047000.6,N
1665627795.1,286047000.9,N
1665627815.9,286047000.8,N
1665627835.7,286047000.4,N
1665627855.6,286047000.2,N
1665627875.4,286047000.1,N
1665627895.2,286047000.2,N
1665627915.1,286047002.1,N
1665627916.0,286047002.1,N
1665627935.8,286047001.9,N
1665627955.6,286047000.2,N
1665627975.5,286047001.9,N
1665627995.3,286047002.6,N
1665628015.2,286047004.1,Y
1665628035.9,286046999.8,P
1665628055.7,286047000.5,N
1665628075.6,286047002.3,P
1665628095.4,286047000.1,N
1665628115.2,286047000.7,N
1665628135.1,286046998.5,N
1665628136.0,286046998.5,N
1665628155.8,286046998.6,N
1665628175.7,286046999.5,N
1665628195.5,286046995.2,Y
1665628215.3,286046997.4,P
1665628235.2,286046999.0,N
1665628255.0,286046995.5,P
1665628255.9,286046995.5,N
1665628275.7,286046995.4,N
1665628295.6,286046996.7,N
1665628315.4,286046999.3,N
1665628335.3,286046999.0,N
1665628355.1,286047000.7,N
1665628356.0,286047000.7,N
1665628375.8,286046999.1,N
1665628395.7,286046999.0,N
1665628415.5,286046997.0,N
1665628435.3,286046998.6,N
1665628455.2,286046996.6,N
1665628475.0,286046999.4,N
1665628475.9,286046999.4,N
1665628495.8,286046998.4,N
1665628515.6,286046998.5,N
1665628535.4,286046998.8,N
1665628555.3,286046998.3,N
1665628575.1,286046998.9,N
1665628595.8,286046999.0,N
1665628615.7,286046997.8,N
1665628635.5,286046999.6,N
1665628655.4,286046996.5,N
1665628675.2,286046999.5,N
1665628695.0,286046999.3,N
1665628695.9,286046999.3,N
1665628715.8,286046996.5,N
1665628735.6,286046997.9,N
1665628755.4,286046994.9,Y
1665628775.3,286046997.0,P
1665628795.1,286046995.4,P
1665628815.9,286046997.0,N
1665628835.7,286046998.8,N
1665628855.5,286046996.7,N
1665628875.4,286046999.1,N
1665628925.2,286046998.8,E
1665628935.2,286047000.3,N
1665628955.0,286047002.4,P
1665628955.9,286047002.4,N
1665628975.7,286047000.4,N
1665628995.6,286047002.7,N
1665629015.4,286047001.6,N
1665629035.3,286047005.1,Y
1665629055.1,286047005.4,P
1665629075.8,286047004.6,N
1665629095.7,286047004.5,N
1665629115.5,286047004.6,Y
1665629135.4,286047002.4,P
1665629155.2,286047002.7,P
1665629175.0,286047001.3,N
1665629175.9,286047001.3,N
1665629195.8,286047001.5,N
1665629215.6,286047002.3,N
1665629235.5,286047002.3,N
1665629255.3,286047002.6,Y
1665629275.1,286046998.5,P
1665629295.9,286046998.3,N
1665629315.7,286046998.2,N
1665629335.5,286047001.1,N
1665629355.4,286046999.5,N
1665629375.2,286046999.2,N
1665629395.1,286046997.3,N
1665629396.0,286046997.3,N
1665629415.8,286046998.8,N
1665629435.7,286046999.4,N
1665629455.5,286046999.4,N
1665629475.3,286046999.5,N
1665629495.2,286046997.8,N
1665629515.9,286046994.9,Y
1665629535.7,286046996.8,P
1665629555.6,286046999.6,N
1665629575.4,286046997.3,N
1665629595.3,286046999.6,N
1665629615.1,286046998.8,N
1665629616.0,286046998.8,N
1665629635.8,286046999.4,N
1665629655.7,286046999.0,N
1665629675.5,286046996.5,Y
1665629695.3,286046999.4,P
1665629715.2,286046996.7,P
1665629735.0,286046997.6,N
1665629735.9,286046997.6,N
1665629755.8,286046997.2,N
1665629775.6,286046997.8,N
1665629795.4,286046997.4,Y
1665629815.3,286046998.3,P
1665629835.1,286046998.6,P
1665629855.9,286046998.4,P
1665629875.7,286047000.9,Y
1665629895.5,286047002.6,P
1665629915.4,286047002.3,N
1665629935.2,286047001.8,N
1665629955.0,286047001.9,N
1665629955.9,286047001.9,N
1665629975.8,286047001.8,N
1665629995.6,286047002.5,N
